Погода в Усьве

Россия / Пермский край     58°41′04″N   57°38′28″E
темп.,
°C
ветер,
м/с
пор.,
м/с
влажн.,
%
обл.,
%
осадки,
мм/ч
давл.,
гПа
погр.,
м
9 марта, вт
вт923:00−11всв3895100 1.4 997352
02:00−14всв0197100 0.3 99920
05:00−14вюв1197100 0.6 100120
08:00−15с009799 0.4 100320
11:00−11сз119199 0.4 1004394
14:00−10сз2389100 0.1 1006716
17:00−11сз3490100 0.3 1008649
20:00−17ссз229999 0.1 101122
10 марта, ср
ср1023:00−22с229978 0.1 101221
02:00−22с229795 0.0 101346
05:00−24с239693 0.0 101346
08:00−24с239497 0.0 101367
11:00−19с359175 0.0 1013261
14:00−15с479088 0.0 1012519
17:00−16ссз589194 0.1 1011510
20:00−21ссз3109695 0.0 1013299
11 марта, чт
чт1123:00−25ссз369794 0.0 1014138
02:00−28ссз239771 0.0 101356
05:00−29ссз229736 0.0 101320
08:00−27зсз129963 0.0 101329
11:00−21зсз139481 0.1 1011293
14:00−18сз3692100 0.1 1011538
17:00−15ссз3688100 0.2 1012990
20:00−20ссз2696100 0.3 1014190
12 марта, пт
пт1223:00−22с1295100 0.3 101520
02:00−22зюз1196100 0.0 101620
05:00−21зюз1199100 0.1 101536
08:00−19з1798100 0.1 1016260
11:00−13зсз4892100 0.2 1016645
14:00−11з5991100 0.1 1016682
17:00−10з51090100 0.2 1016791
20:00−11з51392100 0.1 1017806
13 марта, сб
сб1323:00−10зсз51393100 0.4 1018696
02:00−10зсз51293100 0.3 1019628
05:00−11зсз51194100 0.4 1021505
08:00−13з41096100 0.1 1024399
11:00−11з3792100 0.1 1025408
14:00−8з478797 0.0 1026478
17:00−8зюз488998 0.0 1027499
20:00−12зюз2994100 0.0 1027217